Flag for Belgium Weather past 2 weeks in Brussels, Belgium

Now
67 °F

Mild.


Feels Like: 67 °F
Forecast: 60 / 75 °F
Wind: 3 mph from Northeast

Location: Uccle

Current Time: Jul 26, 2014 at 1:33:07 AM

Latest Report: Jul 26, 2014 at 12:00 AM


Visibility: N/A

Pressure: 29.95 "Hg

Humidity: 75%

Dew point: 58 °F

Location of BrusselsLocation

Historic Weather in Brussels — Graph

°F

Brussels temperature yesterday

Maximum temperature yesterday: 74 °F (at 5:00 PM)
Minimum temperature yesterday: 61 °F (at 7:00 AM)
Average temperature yesterday: 68 °F

Past Weeks' High & Low Weather Summary

 TemperatureHumidityPressure
High91 °F (Jul 18, 7:00 PM)99% (Jul 11, 3:00 AM)30.19 "Hg (Jul 11, 3:00 AM)
Low55 °F (Jul 15, 5:00 AM)32% (Jul 18, 6:00 PM)29.73 "Hg (Jul 13, 7:00 PM)
Average69 °F72%29.98 "Hg
* Reported Midnight between Jul 10 and Jul 11 — Midnight between Jul 25 and Jul 26, Brussels, Weather by CustomWeather, © 2014

Note: Actual official high and low records may vary slightly from our data, if they occured in-between our weather recording intervals... More about our weather records

Advertising

Brussels weather history for previous 24 hours

 ConditionsComfort  
Time TempWeatherWind HumidityBarometerVisibility
12:00 AM
Jul 26
67 °FMild.3 mph75%29.95 "HgN/A
11:00 PM
Jul 25
67 °FMild.3 mph74%29.95 "HgN/A
10:00 PM67 °FMild.3 mph72%29.94 "HgN/A
9:00 PM68 °FMild.3 mph70%29.94 "HgN/A
8:00 PM69 °FMild.5 mph68%29.94 "HgN/A
7:00 PM71 °FMild.5 mph61%29.93 "HgN/A
6:00 PM73 °FScattered clouds.5 mph56%29.93 "Hg6 mi
5:00 PM74 °FMild.6 mph56%29.93 "HgN/A
4:00 PM73 °FPartly sunny.6 mph54%29.94 "Hg12 mi
3:00 PM73 °FPartly sunny.6 mph54%29.95 "Hg12 mi
2:00 PM73 °FMild.7 mph55%29.96 "HgN/A
1:00 PM73 °FMild.5 mph55%29.97 "HgN/A
12:00 PM73 °FPassing clouds.5 mph60%29.97 "Hg12 mi
11:00 AM69 °FMild.5 mph65%29.98 "HgN/A
10:00 AM67 °FPassing clouds.3 mph74%29.98 "Hg6 mi
9:00 AM65 °FMild.3 mph78%29.98 "HgN/A
8:00 AM62 °FCool.3 mph83%29.98 "HgN/A
7:00 AM61 °FPassing clouds.3 mph85%29.97 "Hg2 mi
6:00 AM61 °FCool.5 mph81%29.97 "HgN/A
5:00 AM62 °FCool.2 mph77%29.96 "HgN/A
4:00 AM63 °FMild.3 mph74%29.97 "HgN/A
3:00 AM64 °FMild.3 mph69%29.98 "HgN/A
2:00 AM66 °FMild.5 mph64%29.98 "HgN/A
1:00 AM67 °FMild.3 mph60%29.98 "HgN/A
Weather by CustomWeather, © 2014

See weather overviewHow to use our weather pages